Location: Sternwarte Hubelmatt
(47.0367°N, 8.3053°E)
Time: 00:50:53
(UTC+02:00)

METEOR M2 - Visible Passes

Search period start: 19 April 2024 00:00
Search period end: 29 April 2024 00:00
Orbit: 818 x 826 km, 98.4° (Epoch: 18 April)

Date Brightness Start Highest point End Pass type
(mag) Time Alt. Az. Time Alt. Az. Time Alt. Az.
21 Apr ? 05:48:58 10° NE 05:52:29 17° E 05:55:59 10° SE visible
22 Apr ? 05:30:17 10° ENE 05:32:02 11° E 05:33:45 10° ESE visible
27 Apr ? 05:29:38 10° ENE 05:31:21 11° E 05:33:05 10° ESE visible
